Probability
0 3 0 0 0 0 0 0 0 0 0 3 0 6 19 52 58 68 74 87 84 90 90 94 87 81 87 90 90 90 90 87 90 90 90 84 84 81 74 77 84 81 74 71
0 0 0 0 0 0 0 0 0 0 0 0 0 0 13 45 48 61 68 74 77 87 90 94 87 87 87 87 90 90 87 87 90 94 90 87 84 77 77 81 84 81 74 71
0 0 0 0 0 0 0 0 0 0 0 0 0 0 13 32 42 48 58 74 71 84 90 90 90 90 87 84 87 87 87 90 90 90 87 87 87 84 71 84 81 87 74 74
0 0 0 0 0 0 0 0 0 0 0 0 0 0 6 23 32 39 58 61 68 68 81 90 94 87 90 90 84 87 90 90 94 87 87 84 84 81 81 77 77 81 84 68
0 0 0 0 0 0 0 0 0 0 0 0 0 0 3 13 23 35 42 58 65 71 74 77 84 90 90 90 87 87 87 94 90 87 87 87 90 84 84 81 77 84 84 71
0 0 0 0 0 3 3 3 0 0 3 0 0 0 3 6 13 23 35 48 61 71 77 77 81 87 90 90 87 87 90 90 94 87 87 90 87 87 87 90 81 81 81 74
0 0 0 0 3 3 0 0 0 0 0 0 0 0 3 6 16 16 29 39 48 61 74 77 87 87 87 90 90 90 90 87 87 87 87 87 87 90 87 87 84 77 71 74
0 0 0 0 0 0 0 0 0 0 0 0 0 0 6 19 19 19 32 35 42 58 71 74 84 87 90 90 90 94 90 90 87 87 87 87 87 87 81 84 74 74 71 61
0 0 0 0 0 0 0 0 0 0 0 0 0 3 10 19 19 23 23 32 35 52 55 74 84 87 87 90 90 90 94 90 87 90 90 87 84 87 84 77 71 68 68 65
0 0 0 0 0 0 0 0 0 0 0 0 0 0 3 19 23 26 32 42 48 55 58 61 74 87 84 90 90 90 87 87 87 84 81 68 74 68 74 77 77 65 65 65
0 0 0 0 0 0 0 0 0 0 0 0 0 0 3 19 26 29 39 42 65 55 61 68 74 87 87 87 90 90 90 87 84 84 81 77 71 74 68 74 74 68 65 65
0 0 0 0 0 0 0 0 0 0 0 0 0 0 16 26 26 32 39 48 58 58 58 61 71 77 81 84 87 90 87 87 84 84 84 77 74 74 68 68 68 68 65 61
0 0 0 0 0 0 0 0 0 0 0 0 0 0 16 29 35 35 39 55 58 58 61 71 84 87 81 81 81 84 84 81 74 81 77 74 74 74 71 71 68 61 61 61
0 0 0 0 0 0 0 0 0 0 0 0 0 3 13 23 39 45 48 58 58 71 77 84 81 84 81 74 81 77 77 77 74 68 74 74 71 68 68 68 68 61 65 61
0 3 3 0 0 0 0 0 0 0 0 0 0 6 16 23 29 32 45 48 55 68 81 84 77 77 81 77 74 71 77 74 71 68 71 71 71 71 71 65 65 58 52 45
0 3 3 0 0 0 0 0 0 0 0 0 3 10 6 29 32 42 45 48 58 65 68 74 77 74 77 77 71 65 71 68 65 65 68 71 74 71 68 61 61 61 61 58
3 6 3 0 0 0 0 0 0 0 0 0 3 10 19 26 29 35 45 48 55 65 68 65 71 71 74 71 71 65 68 68 61 65 68 71 61 65 61 55 55 55 61 58
6 3 3 0 0 0 0 0 0 0 0 3 16 13 16 26 39 35 42 48 48 55 52 61 61 65 65 74 68 71 58 58 61 61 61 61 58 58 55 58 48 52 58 58
6 10 0 0 0 0 0 3 0 3 0 3 10 3 13 13 23 32 26 39 58 58 52 58 55 61 65 68 65 68 61 58 58 52 52 52 58 58 58 48 55 45 55 45
3 6 3 0 0 0 3 3 3 3 6 3 3 19 19 19 26 35 42 39 52 52 52 55 55 58 65 65 65 58 42 42 42 42 48 48 52 52 48 52 52 48 45 35
3 3 3 0 0 3 3 3 3 6 10 13 13 23 26 19 29 39 45 48 58 58 58 52 55 55 55 55 55 48 45 45 42 39 42 45 48 52 48 52 48 42 39 29
0 3 0 0 0 0 6 3 6 16 32 23 32 35 32 29 35 42 48 55 48 52 48 45 48 45 48 45 48 45 45 42 35 32 32 35 35 29 32 39 39 32 39 29
0 3 3 3 3 16 13 13 23 23 29 32 35 32 35 29 29 45 39 42 42 39 39 35 35 39 42 42 45 45 45 42 42 42 39 32 35 35 29 29 29 32 29 19
3 3 6 10 3 13 16 19 19 26 32 35 39 35 35 32 32 39 35 35 35 29 35 35 35 42 42 42 45 45 42 42 39 35 35 32 32 35 32 29 23 16 16 13
3 3 6 6 10 13 13 19 16 26 26 29 32 35 35 29 32 39 39 29 32 32 32 32 29 32 35 35 42 39 39 35 35 35 35 29 26 23 26 26 19 13 10 10
3 3 6 3 13 16 19 16 16 26 23 29 35 39 39 32 35 32 29 29 32 32 29 29 32 29 29 29 26 32 32 35 35 35 32 26 26 23 19 19 13 0 0 0
Height
5864 5868 5871 5875 5878 5882 5885 5888 5890 5892 5894 5896 5898 5900 5901 5901 5902 5902 5903 5903 5903 5903 5903 5903 5903 5903 5903 5903 5903 5903 5902 5902 5902 5902 5902 5902 5902 5902 5902 5902 5902 5902 5902 5902
5860 5863 5867 5870 5874 5878 5881 5884 5887 5889 5891 5894 5896 5897 5898 5899 5900 5901 5901 5901 5902 5902 5902 5902 5902 5902 5902 5902 5901 5901 5901 5900 5900 5900 5900 5900 5900 5900 5900 5900 5900 5900 5900 5900
5855 5860 5862 5866 5870 5874 5877 5881 5884 5886 5889 5891 5893 5895 5896 5897 5898 5899 5899 5900 5900 5900 5901 5901 5900 5900 5900 5900 5900 5900 5899 5899 5898 5898 5898 5898 5898 5898 5898 5898 5898 5898 5898 5898
5849 5853 5858 5862 5866 5870 5873 5876 5880 5883 5886 5888 5891 5893 5894 5894 5895 5896 5897 5898 5898 5899 5899 5899 5899 5899 5898 5898 5898 5897 5897 5897 5896 5896 5896 5896 5896 5896 5896 5896 5896 5896 5896 5896
5845 5849 5853 5857 5862 5865 5868 5872 5876 5879 5882 5885 5887 5890 5892 5891 5892 5894 5895 5895 5896 5896 5896 5897 5896 5897 5896 5896 5895 5895 5895 5895 5894 5894 5894 5894 5894 5894 5894 5894 5894 5894 5894 5894
5840 5844 5848 5853 5856 5860 5864 5868 5872 5875 5878 5881 5884 5886 5888 5889 5890 5891 5892 5892 5893 5894 5894 5893 5894 5894 5894 5893 5893 5892 5892 5892 5892 5891 5891 5891 5892 5891 5892 5892 5892 5891 5891 5892
5835 5839 5843 5847 5851 5855 5860 5865 5869 5872 5875 5878 5880 5882 5885 5885 5886 5887 5888 5889 5889 5890 5890 5890 5891 5891 5891 5891 5890 5889 5889 5889 5889 5889 5889 5889 5889 5889 5889 5889 5889 5889 5889 5889
5831 5835 5839 5843 5847 5851 5856 5861 5866 5870 5873 5875 5875 5878 5881 5882 5883 5884 5885 5885 5886 5887 5887 5887 5887 5887 5887 5887 5887 5887 5886 5886 5886 5886 5886 5886 5886 5887 5887 5887 5887 5887 5887 5887
5826 5831 5834 5838 5842 5847 5851 5855 5860 5865 5868 5871 5872 5874 5877 5878 5879 5880 5881 5882 5883 5883 5884 5884 5884 5884 5884 5884 5884 5884 5883 5883 5883 5883 5883 5883 5884 5884 5884 5884 5884 5884 5884 5884
5821 5825 5829 5833 5837 5841 5846 5851 5855 5859 5863 5867 5869 5871 5873 5874 5875 5877 5878 5878 5879 5880 5880 5880 5881 5881 5881 5881 5881 5881 5881 5881 5880 5881 5881 5880 5880 5881 5882 5882 5881 5881 5881 5881
5816 5821 5824 5828 5832 5836 5841 5845 5849 5854 5858 5863 5866 5869 5868 5870 5872 5873 5874 5875 5875 5876 5877 5877 5878 5878 5878 5878 5878 5878 5878 5878 5878 5878 5878 5878 5878 5878 5878 5878 5878 5878 5878 5878
5811 5816 5820 5824 5828 5831 5836 5840 5845 5850 5853 5857 5861 5866 5863 5865 5867 5868 5870 5871 5872 5873 5873 5874 5874 5874 5875 5875 5875 5875 5875 5876 5876 5875 5875 5875 5875 5875 5874 5875 5875 5875 5874 5874
5806 5811 5815 5819 5824 5827 5830 5835 5839 5844 5848 5852 5856 5861 5858 5861 5862 5864 5865 5867 5868 5869 5870 5870 5871 5871 5872 5872 5872 5872 5872 5873 5873 5873 5873 5872 5871 5871 5871 5872 5872 5871 5871 5871
5801 5806 5812 5817 5819 5823 5826 5830 5834 5838 5842 5847 5851 5854 5854 5856 5858 5859 5861 5862 5864 5865 5866 5867 5868 5868 5869 5869 5869 5869 5869 5870 5870 5870 5869 5869 5869 5869 5869 5868 5868 5868 5868 5867
5796 5801 5806 5810 5813 5817 5821 5825 5829 5833 5837 5842 5845 5847 5850 5851 5853 5855 5856 5858 5860 5861 5862 5863 5864 5865 5866 5866 5866 5866 5866 5866 5866 5866 5866 5866 5866 5866 5865 5865 5865 5864 5864 5864
5791 5796 5800 5804 5808 5812 5816 5820 5823 5827 5832 5836 5839 5842 5845 5846 5848 5850 5852 5854 5855 5857 5858 5859 5860 5861 5862 5862 5863 5863 5863 5863 5862 5862 5862 5862 5862 5862 5862 5862 5861 5860 5860 5860
5787 5792 5796 5801 5804 5807 5811 5815 5818 5822 5826 5830 5834 5838 5839 5841 5844 5846 5847 5849 5851 5852 5854 5855 5856 5857 5858 5858 5859 5859 5859 5859 5858 5858 5858 5858 5858 5858 5858 5857 5857 5856 5856 5855
5782 5786 5791 5796 5800 5803 5808 5810 5813 5817 5821 5824 5828 5831 5833 5836 5839 5841 5843 5845 5846 5848 5849 5850 5851 5853 5853 5854 5855 5855 5855 5855 5854 5854 5854 5854 5854 5854 5854 5853 5853 5853 5852 5851
5777 5781 5786 5791 5794 5798 5802 5805 5808 5812 5815 5819 5822 5825 5828 5831 5833 5835 5838 5840 5842 5843 5845 5846 5847 5848 5849 5849 5850 5850 5851 5850 5850 5850 5850 5850 5850 5849 5849 5849 5849 5848 5848 5847
5771 5776 5781 5785 5789 5793 5797 5800 5803 5807 5810 5813 5816 5820 5822 5825 5828 5831 5832 5834 5836 5838 5839 5841 5842 5843 5844 5844 5845 5845 5845 5845 5845 5845 5845 5845 5844 5844 5844 5844 5844 5844 5843 5843
5765 5769 5773 5778 5782 5786 5790 5794 5798 5803 5806 5808 5811 5813 5817 5820 5823 5825 5827 5829 5831 5833 5834 5836 5837 5838 5839 5840 5840 5841 5841 5840 5840 5839 5839 5839 5839 5839 5839 5839 5839 5839 5839 5839
5759 5763 5768 5772 5777 5782 5784 5788 5792 5796 5798 5801 5804 5808 5811 5814 5816 5819 5821 5823 5825 5827 5829 5830 5832 5833 5834 5835 5835 5836 5836 5835 5835 5834 5834 5834 5834 5834 5834 5834 5834 5834 5834 5833
5752 5757 5761 5766 5771 5774 5777 5781 5785 5789 5792 5795 5798 5801 5805 5808 5811 5813 5815 5818 5820 5822 5823 5825 5827 5828 5829 5830 5830 5831 5830 5830 5830 5829 5829 5829 5829 5829 5829 5829 5829 5829 5828 5828
5744 5749 5754 5758 5762 5767 5770 5774 5778 5782 5786 5789 5792 5795 5799 5802 5805 5807 5809 5812 5814 5816 5818 5820 5821 5823 5824 5824 5825 5825 5825 5825 5825 5825 5824 5824 5824 5824 5824 5824 5823 5823 5823 5823
5736 5741 5746 5750 5755 5760 5763 5767 5771 5775 5779 5782 5785 5789 5792 5795 5798 5801 5803 5806 5808 5811 5813 5814 5816 5817 5818 5819 5820 5820 5820 5820 5820 5820 5819 5819 5819 5819 5819 5818 5818 5817 5817 5817
5728 5733 5738 5743 5748 5752 5757 5761 5765 5768 5772 5776 5779 5782 5785 5789 5792 5794 5797 5800 5802 5805 5807 5808 5810 5811 5812 5813 5814 5814 5815 5815 5815 5814 5814 5814 5813 5813 5813 5813 5812 5811 5811 5810
Wind_Speed
23 23 22 21 21 21 19 18 17 17 15 14 13 12 11 10 10 9 8 7 6 5 5 5 6 6 6 7 7 7 7 8 8 8 9 9 9 9 9 9 10 9 9 9
24 24 23 22 22 21 20 19 19 18 16 15 14 14 13 11 11 10 9 9 8 7 6 6 7 8 8 8 8 8 9 8 8 9 10 10 10 10 10 10 10 10 9 9
25 25 24 23 22 22 21 21 20 19 17 16 15 14 14 13 12 12 11 10 10 9 8 8 8 9 9 9 9 9 10 9 9 9 10 10 10 10 10 9 9 10 9 9
27 27 26 25 24 23 22 22 21 19 17 17 16 14 15 15 14 14 13 13 12 11 11 10 10 10 10 10 11 11 11 11 10 10 10 10 10 10 9 9 9 9 10 10
27 27 26 26 25 24 24 23 22 20 19 18 16 15 16 15 14 14 14 14 13 12 12 12 12 11 11 12 12 12 12 12 12 11 11 11 10 10 10 9 9 9 10 10
28 28 27 27 26 26 25 23 22 21 20 19 17 15 15 15 14 15 15 14 14 13 13 13 13 12 12 12 12 13 13 13 13 12 12 12 11 11 11 11 10 10 11 11
28 28 28 28 28 27 26 24 22 21 21 19 18 17 16 15 14 15 14 14 14 13 13 14 13 13 13 12 13 13 13 13 13 12 12 11 12 12 12 12 12 11 11 11
27 28 28 28 28 27 25 25 23 21 19 19 20 18 16 14 14 14 15 14 14 14 14 15 14 14 13 14 14 14 13 13 13 13 13 13 13 13 14 13 13 12 13 13
27 27 28 28 28 27 27 27 25 23 21 19 19 18 16 15 15 15 14 14 14 14 14 14 14 13 13 14 13 13 13 13 13 13 13 13 13 14 14 14 13 14 13 13
27 27 27 28 29 29 28 26 26 24 22 20 19 18 17 16 16 16 15 14 14 14 13 13 14 13 13 13 12 12 12 12 12 12 12 12 13 14 14 14 14 14 14 14
27 26 27 28 29 28 28 28 27 25 23 20 17 18 19 17 16 16 16 15 14 14 13 13 13 13 13 12 12 12 12 12 12 12 12 12 12 13 14 14 14 13 14 14
27 26 26 27 27 27 27 27 26 25 25 22 18 18 19 17 17 17 16 16 15 14 14 14 13 13 13 12 12 12 13 13 12 12 12 12 13 13 13 14 14 13 13 14
26 27 26 26 27 27 27 27 27 26 25 23 20 19 19 17 18 17 17 17 16 15 15 14 13 13 13 13 12 12 12 13 14 14 14 14 13 13 13 14 14 14 14 14
26 26 25 23 24 25 26 26 26 26 25 24 22 20 19 18 18 18 18 18 17 17 16 14 14 13 13 13 13 13 13 14 14 14 15 15 14 14 13 13 14 15 15 14
27 27 27 26 26 25 25 25 25 26 24 23 22 21 20 18 18 18 18 19 18 18 17 14 14 14 14 14 14 14 14 15 15 16 16 16 15 14 15 15 15 16 16 16
27 27 26 26 26 25 25 25 25 26 25 24 23 21 20 19 18 19 18 19 19 18 17 16 15 15 15 15 15 15 16 16 16 16 17 16 16 15 15 16 16 16 16 16
26 27 26 25 25 25 26 26 25 25 25 24 22 21 21 20 19 19 18 19 19 19 18 17 16 16 16 16 16 16 17 17 17 16 16 16 16 16 16 17 16 17 16 16
26 26 26 25 26 26 25 25 25 25 24 23 22 21 21 20 21 20 20 19 20 19 19 18 17 17 16 17 17 17 17 17 18 18 17 17 17 18 17 17 17 17 16 17
27 27 27 26 26 26 26 25 24 25 24 23 22 21 21 21 22 22 21 21 21 21 20 20 19 19 19 19 18 18 18 18 18 19 19 18 18 18 18 18 17 17 17 17
28 28 28 27 25 25 26 24 24 24 25 24 23 22 22 22 23 23 23 23 23 22 22 22 22 20 20 19 19 18 18 18 19 19 19 19 19 19 18 18 18 18 18 18
30 29 29 28 27 26 26 24 24 24 24 23 23 23 22 23 23 23 23 23 23 23 22 22 22 22 21 20 19 19 18 18 18 18 18 18 19 18 18 18 18 18 17 17
31 31 30 29 28 28 26 25 26 25 24 24 24 24 23 23 23 23 23 23 23 23 22 22 23 22 21 21 20 19 19 18 18 18 17 17 17 18 18 18 18 18 18 18
34 33 32 31 30 29 27 26 26 25 25 25 25 25 25 24 23 23 23 23 23 22 22 21 22 22 21 21 20 20 20 19 19 18 19 18 18 18 18 19 19 19 19 20
34 34 33 33 31 29 27 27 27 26 26 26 26 26 26 26 25 25 25 25 24 23 22 22 21 22 22 21 21 21 20 20 20 19 20 20 19 19 19 19 20 20 21 22
33 33 33 33 32 30 29 28 27 27 27 26 26 26 27 27 26 26 26 26 25 24 24 22 22 22 21 21 21 21 20 20 20 19 19 20 20 20 20 20 21 21 21 22
31 32 33 33 32 32 30 29 28 28 27 26 26 26 26 26 26 26 26 26 26 25 25 24 23 22 22 21 21 21 21 20 20 20 19 20 20 20 20 21 21 21 22 23
Wind_Direction
223 223 222 222 222 221 221 222 224 225 225 225 227 236 245 248 251 255 255 256 259 266 272 279 283 287 289 284 281 275 269 273 271 268 267 267 262 259 262 263 263 268 273 273
223 222 222 223 223 223 222 223 226 226 225 226 228 235 241 245 249 249 251 254 258 268 277 281 282 283 285 285 282 283 280 281 276 273 271 268 262 261 262 263 262 265 270 272
223 222 223 223 223 223 223 223 226 228 228 230 233 237 242 244 245 245 249 255 258 266 277 279 280 281 283 283 281 281 282 278 275 274 275 270 264 259 261 265 264 265 265 265
222 221 222 223 223 222 223 224 225 227 228 233 234 237 246 244 243 244 247 253 260 265 272 275 276 277 278 281 281 281 281 279 276 276 274 268 266 262 263 268 269 268 266 268
222 221 222 222 222 221 223 224 225 226 228 233 235 234 244 243 242 244 247 252 258 264 266 269 274 274 277 282 281 280 281 280 281 278 277 266 265 266 266 268 268 270 270 270
221 220 221 220 221 221 223 224 226 227 230 235 235 236 240 244 243 245 247 250 256 263 264 266 269 271 275 282 284 283 281 279 281 277 276 267 263 265 265 266 267 269 271 270
221 220 220 220 221 221 221 222 224 227 231 236 236 236 238 241 242 244 247 252 256 259 264 266 267 269 273 279 282 283 281 279 278 278 276 269 264 265 267 268 270 272 274 273
222 222 221 221 222 223 222 221 222 227 234 238 238 237 237 239 240 244 249 253 256 259 263 263 263 265 270 275 276 277 278 278 274 274 273 267 265 267 270 272 271 272 274 275
220 223 222 222 222 221 220 219 221 224 228 232 240 239 238 237 241 245 249 251 254 259 262 262 264 264 268 270 271 272 274 277 273 271 271 268 266 265 270 273 272 272 274 274
219 222 222 221 221 221 221 221 221 221 226 232 241 240 237 238 241 244 247 250 253 255 259 263 263 263 266 265 265 269 271 273 271 271 276 273 267 265 268 270 271 270 271 273
217 219 221 221 222 223 222 221 222 223 227 229 238 241 236 237 240 243 246 248 250 252 255 259 262 262 263 259 261 266 268 269 268 270 274 271 272 268 269 271 271 271 269 272
216 216 221 221 222 221 221 222 223 226 229 228 231 244 240 240 240 242 243 244 247 251 254 257 261 262 259 259 262 264 263 267 268 270 273 274 274 271 268 269 271 272 272 272
216 216 217 219 220 220 220 221 222 225 230 231 231 242 245 241 240 241 240 241 246 249 253 255 257 257 255 258 263 267 266 268 270 271 273 278 278 277 271 267 269 271 272 271
216 216 214 218 223 223 222 222 224 226 228 232 230 234 243 239 237 238 237 239 242 246 254 256 253 252 253 256 262 269 271 272 274 275 276 277 278 277 274 273 273 272 272 271
215 215 215 215 220 222 223 224 225 227 228 230 233 235 238 236 234 234 236 237 239 244 251 254 251 251 254 257 261 266 271 274 275 274 278 277 274 275 276 275 276 274 272 272
216 215 216 218 220 222 223 224 226 228 228 229 232 235 236 237 236 235 236 236 238 244 248 251 250 249 252 256 260 263 268 271 274 276 276 276 273 273 275 276 276 276 273 271
217 217 217 219 221 224 226 225 226 227 227 229 232 233 233 233 234 235 235 236 236 240 245 248 246 248 252 256 259 262 266 270 274 275 274 272 271 272 274 274 278 277 273 269
218 218 219 220 223 225 228 227 227 228 229 229 230 231 232 230 231 232 233 234 234 237 243 246 245 248 254 257 259 261 266 270 274 272 269 268 271 273 273 273 275 276 273 272
219 219 219 221 226 228 230 229 228 229 230 229 229 228 229 229 230 230 233 234 234 237 242 245 248 251 254 257 258 261 265 270 274 271 266 268 269 272 272 268 270 273 274 275
219 220 221 221 224 230 231 229 229 230 231 229 230 229 229 228 230 231 232 234 236 239 242 247 250 252 252 254 257 262 266 271 272 270 266 266 266 269 268 267 269 271 273 274
221 221 222 223 226 230 230 226 227 228 229 229 230 230 227 226 229 230 231 233 236 240 242 245 248 251 251 252 255 262 268 272 272 270 266 264 264 266 267 268 270 270 270 271
223 224 225 226 229 232 229 226 226 228 229 228 229 228 227 227 228 228 228 231 235 239 242 245 247 251 251 252 255 260 265 270 272 270 266 265 264 266 265 266 268 269 268 269
224 226 227 228 230 233 231 229 228 228 228 228 227 227 228 228 228 229 229 232 236 239 242 244 246 249 252 254 258 263 266 268 269 269 267 267 264 267 266 265 265 268 269 270
227 227 228 230 232 233 232 230 229 228 229 229 229 229 229 230 230 231 231 233 236 239 243 246 247 251 253 255 259 263 267 267 267 268 268 267 266 265 266 267 268 268 269 272
226 226 228 230 231 231 230 229 228 228 228 229 230 230 230 231 232 233 233 235 237 239 242 246 249 250 254 258 260 262 265 267 268 269 267 265 265 266 267 270 270 271 272 274
226 227 227 227 227 228 229 228 228 228 229 229 228 228 229 231 232 232 233 234 236 240 242 246 248 250 255 259 260 261 264 265 266 269 268 266 266 267 268 271 273 273 273 274